Вернуться в каталог

OPS 4682 DEB

АктивенPO
NORAD 38368·DEBRIS·🇺🇸 United States

Запущен Apr 3, 1965 с Vandenberg Space Force Base

Loading…

Ближайшие Пролёты (ближайшие 24 часа)

TLE

СвежийSource: Space-Track

Эпоха: Sep 14, 2026, 14:21 UTC

1 38368U 65027BV  26257.59829118 -.00000142  00000-0 -52220-3 0  9996
2 38368  90.2554  15.0152 0020920 263.3968  96.4770 12.96106156674275

Отслеживайте OPS 4682 DEB в реальном времени с AllMySat

Download on the App Store